RH
22 34 41 50 55 64 70 80 87 73 79 97 100 100 100 100 98 81 80 95 100 100 100 100 64 62 81 76 100 100 100 100 100 100 100 100 100 100 100 98 59 46 43 53
13 11 12 16 31 44 55 60 66 75 80 80 100 100 100 100 100 94 89 99 88 91 85 75 76 71 96 90 97 100 100 100 100 100 100 100 100 100 100 100 87 80 64 63
13 13 10 10 12 16 23 35 44 56 62 76 95 99 100 100 100 100 81 78 100 100 100 100 91 55 67 100 100 100 100 100 100 100 100 100 100 100 100 100 100 100 100 65
12 15 9 8 11 12 16 19 26 32 38 53 82 99 100 100 100 100 100 82 94 100 100 100 90 66 62 52 82 100 100 100 95 100 100 100 100 100 100 100 100 100 99 72
15 14 9 10 9 10 12 13 23 28 26 44 96 97 100 83 100 100 100 100 76 81 85 69 66 60 70 100 100 100 100 88 82 100 100 100 100 100 100 100 100 94 94 88
11 9 9 10 14 13 14 13 18 25 26 65 100 92 54 100 100 100 100 100 100 88 72 64 52 44 49 53 82 100 98 83 100 100 100 100 100 100 100 100 100 100 100 100
11 8 5 12 17 16 14 16 16 17 19 46 59 32 52 100 95 96 100 100 100 100 100 97 78 60 71 65 85 74 88 100 100 100 100 99 100 100 100 100 100 100 100 100
13 9 5 14 16 16 17 19 15 15 19 24 37 50 93 100 95 99 96 100 100 100 100 100 69 45 74 100 100 100 100 100 100 100 100 100 100 100 100 100 100 100 100 100
11 7 10 14 16 20 20 22 18 14 20 28 24 38 59 81 100 100 100 100 100 100 100 86 53 42 86 99 100 100 100 100 100 100 100 100 100 100 100 100 100 100 100 100
7 8 11 12 14 20 22 19 21 19 16 28 25 32 40 54 84 92 99 100 100 100 93 91 44 74 97 95 100 100 100 100 98 89 100 100 100 100 100 100 100 99 81 88
6 13 11 13 15 18 24 27 23 16 17 28 36 29 35 39 54 72 92 96 100 100 100 100 50 93 94 100 100 100 100 89 74 99 100 100 100 100 100 100 98 77 95 100
10 17 8 10 12 16 22 27 22 21 21 26 44 22 29 34 45 94 88 99 100 100 100 100 100 100 100 100 100 100 100 77 51 100 100 96 100 100 100 100 100 100 97 99
15 14 7 13 11 12 15 25 22 20 23 28 26 22 26 32 37 92 100 100 100 100 100 100 100 100 100 100 100 100 100 97 100 77 100 100 100 100 100 100 100 100 100 100
14 11 10 17 12 11 14 21 20 24 23 24 24 24 29 30 36 82 100 100 100 100 100 100 91 95 100 100 100 97 97 100 100 100 100 100 100 100 100 98 100 100 100 100
11 12 14 13 13 14 17 59 50 32 25 30 26 30 29 30 38 83 99 100 100 100 100 100 100 100 100 100 100 100 100 100 100 100 100 100 100 100 100 100 100 100 100 100
14 18 17 14 16 14 23 29 31 23 28 30 30 37 34 34 42 94 100 100 100 100 100 100 100 100 100 100 100 100 100 100 100 100 100 100 100 100 100 100 100 100 100 100
17 22 21 18 15 18 28 27 26 27 33 34 36 37 36 42 49 94 100 100 100 100 100 100 100 100 100 100 100 100 100 100 100 100 100 100 100 100 100 100 90 69 66 60
24 20 17 16 17 24 41 37 42 38 41 43 44 38 45 38 41 91 100 100 100 100 100 100 100 100 100 100 100 100 100 100 100 100 100 100 99 98 100 100 99 76 97 82
18 20 17 20 25 37 62 63 27 39 43 45 39 45 56 52 48 78 100 100 100 100 100 100 100 100 100 100 83 73 85 83 86 100 100 100 99 96 90 73 76 66 83 70
25 18 17 19 33 69 42 34 55 42 50 61 61 62 58 54 59 70 88 100 100 100 100 100 100 100 100 100 100 100 100 78 75 82 83 87 100 82 74 56 56 60 84 79
21 19 21 29 27 47 65 81 65 75 80 72 71 67 72 66 62 85 96 98 100 100 100 100 100 100 100 100 100 100 99 98 91 78 67 78 77 63 63 71 66 71 80 66
35 28 24 31 52 52 83 81 76 88 91 95 100 88 74 57 59 68 83 93 100 100 100 100 100 100 100 100 100 100 98 98 98 100 100 99 94 85 88 81 74 63 59 62
38 44 35 42 38 58 57 49 54 65 92 100 100 100 90 68 49 48 54 68 89 99 100 100 100 100 100 100 98 90 80 80 81 79 72 66 58 49 47 52 55 49 35 36
15 29 27 36 40 26 34 69 84 75 70 65 71 83 67 60 52 48 47 41 44 52 65 75 82 78 75 73 64 60 64 59 56 51 47 48 48 47 47 41 39 37 29 23
12 12 15 23 26 22 30 36 71 80 86 78 76 80 76 74 61 54 47 41 37 33 27 22 21 24 26 30 31 33 38 43 42 37 32 27 29 30 28 20 16 16 11 9
12 15 16 16 23 34 37 47 48 52 60 68 65 59 58 59 57 44 41 43 45 44 38 32 26 23 26 30 32 36 39 40 34 26 21 16 13 10 10 9 9 7 6 6
14 15 14 13 12 13 15 22 38 54 65 72 70 75 80 76 69 70 65 60 58 52 45 45 49 50 56 59 62 45 29 18 16 14 11 9 9 8 7 5 5 6 5 5
Wind_Speed
126 144 151 148 148 146 145 145 144 133 124 101 92 92 93 92 91 89 78 77 76 73 73 69 65 61 56 54 61 62 63 62 60 59 63 60 61 61 63 61 61 63 63 66
120 119 116 134 155 158 151 149 148 142 133 113 100 104 102 99 95 91 83 85 81 75 72 70 66 65 62 61 65 62 58 57 61 62 61 63 61 64 65 64 65 65 65 70
116 118 113 111 109 126 140 153 147 148 141 117 110 102 98 102 99 93 89 86 85 75 75 70 67 66 67 66 66 64 63 66 64 63 65 63 66 69 68 66 66 67 68 73
106 116 114 101 106 106 110 119 136 148 141 120 112 107 107 105 95 96 92 88 84 79 77 72 66 64 65 61 64 65 67 64 66 62 62 65 70 70 68 67 69 70 72 74
102 106 99 98 96 104 102 96 95 101 103 106 104 109 112 107 99 98 95 93 88 84 81 80 71 71 70 68 65 67 66 66 67 63 66 68 69 67 66 69 71 75 76 79
98 94 93 80 100 99 99 100 89 89 83 79 95 110 106 93 102 103 101 91 87 83 79 75 74 72 72 75 70 65 64 65 63 66 67 66 65 66 71 75 75 76 80 85
90 86 67 72 92 99 102 93 95 89 77 73 80 84 80 99 111 104 96 89 88 83 76 71 69 70 65 66 66 66 63 63 62 65 69 66 68 73 75 76 76 79 83 88
91 81 54 68 85 95 96 98 90 83 80 78 72 73 72 82 88 105 100 94 87 81 72 73 67 68 67 64 64 65 64 62 60 61 65 69 72 74 73 76 79 83 88 94
84 61 54 78 78 87 86 91 88 79 79 86 71 68 66 69 79 85 87 88 84 76 73 68 65 67 64 62 64 63 62 59 59 62 64 67 70 72 75 78 85 88 94 97
66 54 64 78 77 77 82 84 84 80 77 83 80 73 68 64 67 80 84 81 74 65 63 59 60 64 64 67 64 59 60 60 64 65 66 71 75 81 85 86 88 90 95 97
48 49 64 70 78 80 77 77 80 75 74 79 90 80 70 63 64 71 79 79 65 57 62 64 62 66 63 62 62 64 66 66 65 68 71 77 81 86 87 85 91 94 89 88
45 60 60 67 74 78 79 78 76 71 69 77 91 74 66 63 63 69 74 77 69 67 71 63 63 61 63 68 66 67 69 69 72 73 79 83 89 87 89 94 90 90 96 103
47 59 53 60 69 74 79 79 75 67 69 73 73 74 70 66 63 70 69 70 71 73 75 68 69 65 67 71 73 74 77 79 78 80 86 87 86 88 91 92 97 99 99 106
53 49 50 62 69 74 74 76 65 66 65 64 70 72 71 68 63 72 75 74 72 74 72 74 73 74 73 73 71 76 81 82 84 84 87 89 89 92 96 99 100 105 112 119
43 44 50 60 65 69 67 58 64 67 62 60 67 72 76 70 67 77 77 76 79 78 81 71 68 72 75 79 81 85 86 87 84 85 88 91 94 96 100 106 113 116 117 120
42 45 54 55 63 66 68 68 66 60 54 62 69 74 75 73 72 80 80 84 82 83 86 78 75 75 76 82 83 84 84 85 88 89 93 97 102 109 110 111 116 119 125 129
37 46 52 54 59 62 65 63 57 57 58 64 72 77 77 77 78 81 85 87 89 90 88 89 92 85 84 85 86 90 92 93 98 102 103 108 114 120 117 119 124 130 132 137
39 46 51 53 56 62 61 61 64 62 61 67 75 76 79 82 79 85 92 93 95 92 93 93 92 99 100 97 96 98 100 104 106 107 111 114 115 116 117 121 126 130 136 139
38 41 46 49 57 63 66 72 68 66 66 72 75 78 81 81 81 90 94 97 99 100 101 100 98 98 97 99 105 110 109 107 108 109 112 117 121 123 129 132 135 139 138 144
38 39 44 49 58 65 69 58 63 65 68 74 78 82 83 84 85 92 100 103 105 106 106 108 109 107 107 112 112 112 110 115 118 120 121 123 126 132 134 137 141 145 144 146
40 39 44 50 54 60 64 69 68 71 71 76 80 84 86 87 89 92 99 106 107 109 111 111 112 114 114 115 120 123 123 125 128 132 134 137 139 141 141 144 148 150 153 157
37 40 43 50 56 63 69 73 75 75 78 80 79 84 87 90 90 93 98 103 107 111 114 116 116 120 126 124 126 129 130 132 133 136 138 140 142 146 148 152 156 158 156 153
44 47 50 52 59 68 75 79 80 80 82 85 86 87 88 92 95 96 96 103 108 113 118 121 124 127 130 131 134 136 140 143 144 146 148 150 153 153 152 152 152 144 135 133
45 48 51 54 59 64 66 76 83 86 90 91 92 93 94 95 97 98 100 103 106 112 121 125 131 135 138 140 142 142 143 145 148 148 147 144 141 136 136 136 137 135 133 127
43 44 46 52 55 56 63 72 82 85 87 88 92 96 96 98 101 102 104 105 107 111 114 114 115 115 118 121 123 127 130 132 133 134 134 133 134 135 133 128 124 122 116 109
41 41 41 44 49 54 57 63 73 81 86 89 93 97 102 103 104 105 105 107 110 112 115 116 115 114 116 118 119 119 121 124 125 123 123 121 121 118 116 112 106 104 100 96
35 38 42 43 44 46 49 52 60 67 72 80 85 90 96 100 103 105 108 109 112 115 115 115 117 118 120 122 122 121 118 112 112 111 111 107 107 104 100 98 95 92 88 84
Wind_Direction
243 242 240 242 246 248 249 251 252 250 250 247 244 248 250 252 255 262 264 261 262 265 269 270 270 269 270 270 274 278 280 279 279 284 288 282 282 286 287 287 286 291 291 295
243 244 240 240 241 244 246 249 252 250 250 252 249 244 247 253 255 258 261 260 262 262 263 267 267 268 269 271 273 276 277 278 284 286 282 281 284 287 288 286 288 290 292 293
244 246 243 242 243 244 246 247 249 251 251 251 245 246 246 249 251 256 257 256 258 260 262 263 265 268 266 265 269 272 274 279 281 284 281 280 282 286 286 284 287 289 290 294
243 244 244 242 242 244 246 248 250 252 252 252 244 243 243 245 249 252 255 254 251 255 261 262 265 270 271 267 268 271 274 277 281 280 277 279 282 284 282 283 286 288 289 293
244 244 247 245 245 246 246 245 250 252 250 249 247 243 239 243 245 246 252 254 252 252 254 261 263 265 266 265 267 269 271 275 280 277 277 279 281 281 282 281 282 287 290 296
244 242 244 244 247 247 246 246 246 251 252 249 248 246 245 242 241 243 245 248 254 254 255 259 262 265 268 263 266 268 272 277 271 271 275 280 282 283 281 284 285 285 289 298
248 247 244 239 243 247 247 247 244 245 248 246 249 254 247 239 240 242 242 247 250 251 255 259 261 265 263 260 263 267 269 268 269 270 276 280 280 282 284 285 286 287 292 293
245 246 242 241 241 243 245 244 244 244 244 245 246 247 245 242 240 238 241 244 247 252 253 257 261 260 258 260 262 265 265 267 270 273 273 277 282 284 285 281 281 283 285 288
248 246 235 237 238 244 244 246 246 242 242 243 243 245 244 243 240 238 238 243 246 251 254 256 260 257 257 259 263 265 263 265 269 272 277 282 284 279 276 279 288 289 289 291
246 239 233 232 235 238 241 243 241 240 237 244 242 239 241 241 241 235 237 242 245 245 254 256 251 254 255 258 259 259 264 265 267 274 277 277 274 274 282 283 283 287 291 295
244 236 232 230 230 234 234 237 242 238 232 237 242 237 237 241 242 235 233 235 240 241 248 253 253 255 257 257 260 262 263 269 276 277 277 270 271 276 279 281 287 291 290 289
232 228 226 224 226 229 232 233 237 238 237 240 239 232 232 234 238 229 227 231 233 236 242 249 251 253 253 257 260 262 265 273 274 274 275 272 270 274 278 283 283 281 284 290
226 228 223 222 223 224 227 230 232 234 234 237 237 230 230 232 235 227 222 227 227 235 241 247 246 251 254 257 259 261 267 272 270 270 270 267 271 273 278 275 280 286 287 287
223 222 215 217 219 220 223 227 229 233 233 233 230 226 228 229 235 228 224 223 227 235 242 247 247 252 254 256 259 264 265 265 264 262 265 267 269 272 277 279 279 282 287 289
216 215 214 217 219 219 220 222 226 227 226 225 224 225 228 227 234 227 222 223 226 231 235 242 244 248 251 253 256 259 260 259 258 261 265 271 272 275 275 280 285 285 288 290
211 207 214 215 219 219 217 221 223 224 219 220 220 222 226 228 233 225 221 224 229 232 236 240 244 245 250 252 253 255 254 257 261 265 265 267 270 278 282 280 282 286 286 288
211 207 213 214 217 216 218 223 225 223 216 217 220 221 223 227 231 223 224 225 229 234 237 240 240 245 245 248 252 254 256 259 263 268 270 271 273 277 278 280 281 285 287 287
215 217 214 214 214 212 214 217 218 220 221 217 221 222 223 227 230 225 229 231 234 237 239 240 242 243 246 250 253 255 259 261 264 265 268 271 273 276 278 279 281 283 285 288
219 218 215 214 211 209 210 216 215 216 219 220 222 222 225 229 232 230 231 235 235 236 241 242 244 245 247 251 253 256 259 261 262 264 267 268 271 273 275 278 281 282 285 287
229 224 218 213 209 212 219 219 217 216 218 220 222 225 229 231 233 233 232 235 237 240 242 245 245 246 248 251 254 256 259 259 260 263 267 271 274 274 277 279 281 283 285 287
216 216 216 217 214 215 217 221 221 220 222 224 226 227 230 233 236 236 237 237 240 243 245 247 250 250 252 253 254 258 262 265 265 266 268 272 274 276 278 280 282 285 285 288
222 222 220 219 217 216 219 223 224 224 224 226 229 234 234 234 237 239 240 242 243 246 248 250 252 252 254 256 257 258 260 263 266 269 272 273 274 276 278 280 283 287 289 289
219 225 224 225 222 221 222 225 225 224 224 226 229 233 236 238 238 239 242 244 246 247 249 251 252 253 255 257 258 260 262 265 266 268 270 272 275 279 280 282 284 285 287 291
224 224 227 226 226 227 228 227 227 228 228 229 231 234 237 239 241 243 245 246 246 248 249 251 253 254 256 258 260 263 265 266 268 270 273 277 279 281 281 282 284 286 289 289
231 230 229 228 230 231 228 229 229 230 233 235 236 238 241 242 245 247 248 250 252 254 256 258 260 260 261 262 265 268 270 271 274 276 278 278 280 281 282 283 286 286 287 288
230 230 231 231 231 234 233 232 233 235 236 237 239 242 243 246 248 252 255 256 258 260 262 264 267 270 272 273 274 276 275 276 277 277 279 280 281 282 283 286 287 287 287 288
235 233 232 234 234 236 237 238 239 240 242 244 247 249 250 252 254 256 259 261 262 264 266 269 270 270 272 275 276 276 276 278 279 280 282 284 284 285 286 286 286 287 289 289